New Bedford, MA

6:58 AM EDT on May 26, 2017 (GMT -0400)
New Bedford Regional

Weather History for KEWB - April, 2013

Change the Weather History Date:

Wednesday, April 3, 2013

  Actual Average Record
Temperature  
Mean Temperature 39 °F -  
Max Temperature 46 °F 53 °F 78 °F (1967)
Min Temperature 32 °F 37 °F 24 °F (1954)
Degree Days  
Heating Degree Days 26    
Moisture  
Dew Point 12 °F    
Average Humidity 36    
Maximum Humidity 48    
Minimum Humidity 24    
Precipitation  
Precipitation 0.00 in - - ()
Sea Level Pressure  
Sea Level Pressure 30.02 in    
Wind  
Wind Speed 14 mph (West)    
Max Wind Speed 21 mph    
Max Gust Speed 32 mph    
Visibility 10 miles    
Events      
Averages and records for this station are not official NWS values.
T = Trace of Precipitation, MM = Missing Value Source: NWS Daily Summary

Daily Weather History Graph

Daily Weather History Graph

Search for Another Location

Airport or City:

Trip Planner

Search our weather history database for the weather conditions in past years. The results will help you decide how hot, cold, wet, or windy it might be!

Date:

Astronomy

Apr. 03, 2013 Rise Set
Actual Time 6:23 AM EDT 7:11 PM EDT
Civil Twilight 5:54 AM EDT 7:39 PM EDT
Nautical Twilight 5:21 AM EDT 8:13 PM EDT
Astronomical Twilight 4:47 AM EDT 8:48 PM EDT
Moon 2:06 AM EDT (4/3) 12:15 PM EDT (4/3)
Length of Visible Light 13h 44m
Length of Day
12h 48m
Last Quarter, 45% of the Moon is Illuminated
Apr 3
Last Quarter
Apr 10
New
Apr 18
First Quarter
Apr 25
Full
May 2
Last Quarter

Hourly Weather History & Observations

Time (EDT) Temp. Windchill Dew Point Humidity Pressure Visibility Wind Dir Wind Speed Gust Speed Precip Events Conditions
12:53 AM 33.1 °F 25.5 °F 12.9 °F 43% 29.99 in 10.0 mi West 9.2 mph - N/A   Clear
1:53 AM 33.1 °F 23.9 °F 12.9 °F 43% 29.98 in 10.0 mi West 12.7 mph 29.9 mph N/A   Clear
2:53 AM 33.1 °F 24.4 °F 12.9 °F 43% 29.98 in 10.0 mi West 11.5 mph 23.0 mph N/A   Clear
3:53 AM 32.0 °F 19.8 °F 12.9 °F 45% 29.98 in 10.0 mi West 20.7 mph 25.3 mph N/A   Partly Cloudy
4:53 AM 32.0 °F 22.5 °F 14.0 °F 48% 29.98 in 10.0 mi West 12.7 mph 17.3 mph N/A   Mostly Cloudy
5:53 AM 32.0 °F 20.8 °F 12.0 °F 44% 30.00 in 10.0 mi West 17.3 mph 26.5 mph N/A   Clear
6:53 AM 32.0 °F 24.2 °F 14.0 °F 48% 30.02 in 10.0 mi WNW 9.2 mph - N/A   Partly Cloudy
7:53 AM 34.0 °F 25.0 °F 15.1 °F 46% 30.03 in 10.0 mi West 12.7 mph 24.2 mph N/A   Partly Cloudy
8:53 AM 35.1 °F 24.8 °F 14.0 °F 42% 30.03 in 10.0 mi WNW 17.3 mph 29.9 mph N/A   Partly Cloudy
9:53 AM 37.0 °F 26.7 °F 12.0 °F 36% 30.02 in 10.0 mi West 19.6 mph 31.1 mph N/A   Partly Cloudy
10:53 AM 39.0 °F 30.6 °F 12.0 °F 33% 30.01 in 10.0 mi WNW 15.0 mph 31.1 mph N/A   Clear
11:53 AM 42.1 °F 36.1 °F 12.0 °F 29% 30.00 in 10.0 mi West 10.4 mph 28.8 mph N/A   Clear
12:53 PM 43.0 °F 36.4 °F 10.9 °F 27% 29.99 in 10.0 mi WNW 12.7 mph 29.9 mph N/A   Clear
1:53 PM 44.1 °F 35.7 °F 10.9 °F 26% 29.99 in 10.0 mi WSW 20.7 mph 32.2 mph N/A   Clear
2:53 PM 46.0 °F 39.6 °F 10.9 °F 24% 29.97 in 10.0 mi West 15.0 mph 31.1 mph N/A   Clear
3:53 PM 46.0 °F 39.6 °F 12.0 °F 25% 29.96 in 10.0 mi WNW 15.0 mph 28.8 mph N/A   Clear
4:53 PM 46.0 °F 39.9 °F 10.9 °F 24% 29.97 in 10.0 mi WNW 13.8 mph 25.3 mph N/A   Clear
5:53 PM 44.1 °F 36.2 °F 10.0 °F 25% 29.98 in 10.0 mi West 18.4 mph 25.3 mph N/A   Clear
6:53 PM 42.1 °F 35.2 °F 10.0 °F 27% 30.02 in 10.0 mi WNW 12.7 mph 27.6 mph N/A   Clear
7:53 PM 39.9 °F 31.1 °F 10.9 °F 31% 30.06 in 10.0 mi WNW 17.3 mph 28.8 mph N/A   Clear
8:53 PM 37.9 °F 29.6 °F 10.9 °F 33% 30.11 in 10.0 mi WNW 13.8 mph 29.9 mph N/A   Clear
9:53 PM 36.0 °F 27.1 °F 12.0 °F 37% 30.14 in 10.0 mi WNW 13.8 mph 20.7 mph N/A   Clear
10:53 PM 35.1 °F 24.8 °F 12.0 °F 39% 30.15 in 10.0 mi WNW 17.3 mph 23.0 mph N/A   Clear
11:53 PM 34.0 °F 26.6 °F 12.9 °F 42% 30.17 in 10.0 mi WNW 9.2 mph 18.4 mph N/A   Clear